[[{"header":{"parameterUnit":"m.s-1","parameterCategory":1,"la1":30.2991,"la2":30.254,"lo1":-89.0895,"lo2":-89.0444,"dy":0.0017,"dx":0.0017,"nx":28,"ny":28,"refTime":"2025-05-16T21:00:00:Z","depth":0,"parameterNumber":2,"parameterNumberName":"U-component_of_WINDS"},"data":[0,0,0,0,0,0,0,0,0,0,0,0,0,0,0,0,0,0,0,0,0,0,0,0,0,0,0,0,0,0,0,0,0,0,0,0,0,0,0,0,0,0,0,0,0,0,0,0,0,0,0,0,0,0,0,0,0,0,1.5344,1.5346,0,1.5473,1.5475,1.5476,1.5509,1.5508,1.5507,1.5506,1.5642,1.5646,1.5651,0,0,0,0,0,0,0,0,0,0,0,0,0,1.5131,1.5135,1.5344,1.5346,1.5347,1.5473,1.5475,1.5476,1.5509,1.5508,1.5507,1.5506,1.5641,1.5646,1.5651,0,0,0,0,0,0,0,0,0,0,0,0,0,1.5238,1.5136,1.5344,1.5379,1.5383,1.5472,1.5475,1.5477,1.5509,1.5508,1.5507,1.5506,1.5639,1.5645,1.5652,1.5717,0,0,1.5672,1.5675,0,0,0,0,0,0,0,0,1.5232,1.5246,1.5372,1.5376,1.5382,1.5474,1.5449,1.5557,1.551,1.5461,1.5506,1.5505,1.5587,1.5598,1.5625,1.5723,1.5729,1.5672,1.5676,1.5679,1.5681,0,0,0,0,0,0,0,1.5225,1.5241,1.5395,1.5374,1.538,1.5389,1.5403,1.547,1.553,1.5466,1.5468,1.5483,1.559,1.5619,1.5628,1.5731,1.5672,1.5678,1.5682,1.5685,1.5891,1.5893,0,0,0,0,0,0,1.5211,1.5234,1.5391,1.5399,1.5302,1.5394,1.541,1.5445,1.5529,1.5541,1.5484,1.5484,1.5608,1.5621,1.5633,1.5716,1.5679,1.5685,1.5689,1.589,1.5892,1.5893,0,0,0,0,0,0,1.5206,1.5224,1.5386,1.5318,1.5339,1.5399,1.5439,1.5449,1.5477,1.5543,1.5554,1.5502,1.5607,1.5624,1.5696,1.5721,1.5688,1.5694,1.5888,1.589,1.5892,1.5881,0,0,0,0,0,0,1.52,1.5222,1.5246,1.5318,1.5342,1.5445,1.544,1.5452,1.5488,1.549,1.5563,1.5574,1.5608,1.5686,1.5702,1.573,1.5699,1.5886,1.5889,1.5892,1.588,1.5883,1.5886,0,0,0,0,0,1.5192,1.5239,1.5247,1.5266,1.5373,1.5446,1.5461,1.5498,1.549,1.5516,1.5558,1.5572,1.5716,1.5693,1.5712,1.5741,1.5884,1.5888,1.5891,1.5878,1.5882,1.5886,0,0,0,0,0,0,1.517,1.5249,1.5259,1.533,1.5381,1.5452,1.5485,1.55,1.5555,1.5555,1.5599,1.5616,1.5685,1.5721,1.5694,1.581,1.58,1.5808,1.5784,1.5788,1.5791,1.5781,1.5705,0,0,0,0,0,1.5173,1.5224,1.5291,1.5347,1.5372,1.5424,1.5457,1.5481,1.5536,1.5559,1.5606,1.566,1.5718,1.5755,1.5812,1.5885,1.5902,1.5915,1.5918,1.592,1.5926,1.5969,1.5976,1.5905,1.5905,1.5905,0,0,1.518,1.523,1.5259,1.5344,1.5386,1.544,1.5442,1.5498,1.5539,1.5568,1.5638,1.5675,1.5739,1.5812,1.5847,1.5844,1.595,1.5924,1.5926,1.5931,1.5973,1.598,1.5986,1.5907,1.5907,1.5906,0,0,1.5221,1.5263,1.5315,1.5358,1.5422,1.5456,1.5469,1.5537,1.5563,1.5634,1.5657,1.5707,1.5805,1.585,1.5885,1.5945,1.596,1.5962,1.5978,1.6019,1.6025,1.603,1.6053,1.606,1.5968,1.5968,1.5968,0,1.5222,1.5303,1.534,1.5396,1.5433,1.546,1.5515,1.5554,1.5634,1.566,1.5655,1.578,1.5824,1.5909,1.5924,1.5951,1.5968,1.5954,1.6021,1.6027,1.6032,1.6054,1.6062,1.5968,1.5968,1.5968,1.5968,0,1.5302,1.5358,1.5392,1.5468,1.5509,1.5563,1.5611,1.5648,1.5669,1.5705,1.5778,1.5833,1.5902,1.5924,1.5945,1.6012,1.6008,1.6012,1.6003,1.6038,1.606,1.6068,1.5968,1.5968,1.5968,1.5968,0,0,1.5332,1.5428,1.544,1.5475,1.5548,1.5593,1.565,1.5716,1.5748,1.5802,1.5852,1.5935,1.5939,1.5979,1.6006,1.6042,1.6088,1.6042,1.6044,1.6049,1.6167,1.6164,1.6173,1.6098,1.61,1.6101,1.6162,0,1.5383,1.5483,1.5519,1.5603,1.5656,1.5683,1.5733,1.5784,1.5819,1.5871,1.591,1.5968,1.5969,1.5993,1.603,1.6074,1.6112,1.607,1.6146,1.6149,1.613,1.6184,1.6181,1.6236,1.617,1.6172,1.6173,0,1.5455,1.5509,1.5598,1.5666,1.569,1.5733,1.5798,1.5846,1.5905,1.5929,1.5974,1.5999,1.6061,1.6048,1.6136,1.6106,1.614,1.6166,1.6169,1.6178,1.6163,1.6196,1.6254,1.6263,1.6186,1.6185,1.6184,0,1.5469,1.5565,1.5631,1.566,1.574,1.5771,1.5806,1.5864,1.5902,1.5959,1.5985,1.6049,1.6084,1.6133,1.6175,1.6162,1.6259,1.625,1.6282,1.6281,1.6301,1.63,1.6367,1.6322,1.6321,1.6321,1.6321,0,1.5522,1.5575,1.5638,1.5679,1.574,1.5782,1.5842,1.5879,1.5931,1.5981,1.6009,1.6055,1.6107,1.616,1.6194,1.6262,1.6277,1.6299,1.6307,1.6297,1.6294,1.632,1.6318,1.6323,1.6323,1.6323,1.6322,0,1.5548,1.5592,1.5666,1.5736,1.5755,1.5798,1.5859,1.59,1.5937,1.5999,1.6016,1.6074,1.6139,1.6185,1.6269,1.6291,1.6365,1.6373,1.6344,1.6349,1.6378,1.6375,1.6465,1.648,1.6423,1.6424,1.6424,0,1.5579,1.5621,1.5696,1.5731,1.5766,1.5821,1.586,1.5904,1.5944,1.6015,1.6048,1.6115,1.617,1.6272,1.6323,1.6387,1.6397,1.6425,1.6407,1.6396,1.6399,1.6396,1.6402,1.6427,1.6428,1.6428,1.6428,0,1.563,1.565,1.5705,1.5768,1.5813,1.5865,1.5917,1.5944,1.5997,1.6041,1.6107,1.615,1.6235,1.6301,1.6371,1.6409,1.6428,1.6433,1.6444,1.6434,1.6416,1.6427,1.6352,1.6431,1.6431,1.643,1.643,1.643,1.5661,1.57,1.5759,1.5819,1.5863,1.5911,1.5954,1.5996,1.6051,1.6123,1.6146,1.6215,1.6275,1.637,1.641,1.6465,1.6464,1.648,1.6484,1.6487,1.6487,1.6407,1.6478,1.6478,1.6478,1.6478,1.6478,0,1.5714,1.5754,1.5809,1.5881,1.5929,1.5942,1.6,1.604,1.61,1.6154,1.6208,1.6284,1.6349,1.6405,1.6472,1.6506,1.6517,1.6522,1.6521,1.653,1.6484,1.6468,1.6513,1.6513,1.6513,1.6513,1.6513,1.6513,1.5748,1.5815,1.5842,1.5932,1.5971,1.6038,1.6071,1.6116,1.616,1.6244,1.6297,1.6333,1.6388,1.646,1.6521,1.6536,1.656,1.6563,1.6581,1.6537,1.6533,1.6529,1.6514,1.6568,1.6568,1.6622,1.6623,1.6623]},{"header":{"parameterUnit":"m.s-1","parameterCategory":1,"la1":30.2991,"la2":30.254,"lo1":-89.0895,"lo2":-89.0444,"dy":0.0017,"dx":0.0017,"nx":28,"ny":28,"refTime":"2025-05-16T21:00:00:Z","depth":0,"parameterNumber":3,"parameterNumberName":"V-component_of_WINDS"},"data":[0,0,0,0,0,0,0,0,0,0,0,0,0,0,0,0,0,0,0,0,0,0,0,0,0,0,0,0,0,0,0,0,0,0,0,0,0,0,0,0,0,0,0,0,0,0,0,0,0,0,0,0,0,0,0,0,0,0,3.0371,3.0371,0,3.0398,3.0399,3.0399,3.0397,3.0396,3.0396,3.0395,3.0419,3.042,3.0421,0,0,0,0,0,0,0,0,0,0,0,0,0,3.0313,3.0314,3.0371,3.0371,3.0372,3.0398,3.0399,3.0399,3.0397,3.0396,3.0396,3.0395,3.0419,3.042,3.0422,0,0,0,0,0,0,0,0,0,0,0,0,0,3.0339,3.0315,3.0371,3.0374,3.0374,3.0398,3.0399,3.0399,3.0397,3.0396,3.0396,3.0395,3.0419,3.042,3.0422,3.0443,0,0,3.0426,3.0427,0,0,0,0,0,0,0,0,3.0338,3.0341,3.0373,3.0374,3.0374,3.0394,3.0387,3.0414,3.0397,3.0388,3.0395,3.0395,3.0411,3.0413,3.042,3.0444,3.0445,3.0427,3.0427,3.0428,3.0429,0,0,0,0,0,0,0,3.0336,3.034,3.0382,3.0373,3.0374,3.0373,3.0376,3.0392,3.0402,3.0389,3.0389,3.0392,3.0411,3.0418,3.042,3.0446,3.0427,3.0428,3.0429,3.0429,3.049,3.0491,0,0,0,0,0,0,3.0334,3.0339,3.0381,3.0382,3.0354,3.0374,3.0378,3.0388,3.0402,3.0404,3.0393,3.0392,3.0416,3.0418,3.0421,3.0448,3.0428,3.043,3.043,3.049,3.0491,3.0491,0,0,0,0,0,0,3.0333,3.0338,3.038,3.0361,3.0366,3.0376,3.0387,3.0389,3.0396,3.0405,3.0407,3.0398,3.0415,3.0419,3.0438,3.0448,3.043,3.0432,3.0489,3.049,3.0491,3.0501,0,0,0,0,0,0,3.0331,3.0337,3.0346,3.0361,3.0367,3.0398,3.0388,3.039,3.0399,3.0398,3.0411,3.0412,3.0415,3.0436,3.044,3.045,3.0433,3.0488,3.0489,3.0491,3.05,3.0502,3.0504,0,0,0,0,0,3.0329,3.0347,3.0347,3.0352,3.0379,3.0398,3.0401,3.0406,3.04,3.0408,3.0415,3.0412,3.0447,3.0438,3.0442,3.0453,3.0487,3.0489,3.049,3.0499,3.0502,3.0504,0,0,0,0,0,0,3.0331,3.0349,3.0349,3.0372,3.0384,3.0398,3.0409,3.0409,3.0421,3.042,3.0423,3.0426,3.0446,3.0451,3.0441,3.0475,3.0466,3.0469,3.0471,3.0474,3.0476,3.0474,3.0434,0,0,0,0,0,3.0335,3.0351,3.0365,3.0384,3.039,3.0399,3.0407,3.041,3.0421,3.0426,3.0433,3.0444,3.0457,3.0466,3.0479,3.0501,3.0503,3.051,3.0513,3.0515,3.0517,3.0529,3.0532,3.0497,3.0496,3.0496,0,0,3.0342,3.0353,3.0363,3.0385,3.0394,3.0409,3.0402,3.0419,3.043,3.0428,3.0447,3.0453,3.0465,3.0486,3.0496,3.0491,3.0527,3.0517,3.0518,3.0519,3.0531,3.0535,3.0538,3.0498,3.0497,3.0497,0,0,3.0363,3.0373,3.0391,3.0401,3.0416,3.0421,3.0426,3.044,3.0444,3.0464,3.0463,3.0476,3.0499,3.0508,3.0515,3.054,3.0538,3.0544,3.0556,3.0568,3.0571,3.0574,3.0583,3.0586,3.0546,3.0546,3.0546,0,3.0369,3.0393,3.0399,3.0417,3.0426,3.0427,3.0444,3.0453,3.0471,3.0477,3.0472,3.0502,3.0509,3.0533,3.0539,3.0545,3.055,3.0543,3.057,3.0573,3.0575,3.0584,3.0588,3.0547,3.0547,3.0547,3.0547,0,3.04,3.0417,3.043,3.0449,3.046,3.0477,3.0485,3.0495,3.0497,3.0503,3.0523,3.0533,3.0548,3.0553,3.0554,3.0577,3.0574,3.057,3.0561,3.058,3.0588,3.0591,3.0548,3.0548,3.0547,3.0547,0,0,3.0422,3.0446,3.0451,3.046,3.0477,3.049,3.0506,3.0523,3.0532,3.0544,3.0558,3.0578,3.0575,3.0583,3.0585,3.0596,3.0616,3.059,3.0591,3.0595,3.0642,3.0645,3.0649,3.0615,3.0615,3.0616,3.0641,0,3.0445,3.0477,3.0484,3.0511,3.0527,3.0528,3.0543,3.0554,3.0561,3.0574,3.058,3.0595,3.0589,3.0594,3.0605,3.0611,3.0625,3.0609,3.0627,3.0628,3.0625,3.0654,3.0657,3.068,3.0644,3.0645,3.0645,0,3.0475,3.0491,3.052,3.0537,3.0543,3.0557,3.0573,3.0586,3.0599,3.0603,3.0613,3.0614,3.0631,3.0622,3.0645,3.0634,3.0641,3.0646,3.0647,3.0649,3.0638,3.0656,3.0688,3.0691,3.065,3.065,3.065,0,3.0489,3.0517,3.0538,3.0546,3.0565,3.0575,3.0583,3.0596,3.0606,3.0619,3.0626,3.064,3.0648,3.0659,3.0664,3.0657,3.0687,3.0678,3.069,3.069,3.0696,3.0696,3.073,3.0701,3.0701,3.0701,3.0701,0,3.0514,3.0532,3.0545,3.0558,3.0578,3.0585,3.0605,3.0612,3.0624,3.0638,3.0639,3.0652,3.0658,3.0671,3.0675,3.0694,3.0697,3.07,3.0701,3.0701,3.07,3.0706,3.0704,3.0702,3.0702,3.0702,3.0701,0,3.0532,3.0542,3.0566,3.0583,3.0587,3.0602,3.0616,3.0628,3.0635,3.0653,3.0657,3.0667,3.0683,3.0689,3.0708,3.0711,3.0733,3.0732,3.0729,3.0729,3.0742,3.0741,3.078,3.0786,3.0753,3.0753,3.0754,0,3.0547,3.0561,3.0581,3.0591,3.0601,3.0617,3.0628,3.0635,3.0646,3.0663,3.0673,3.069,3.0703,3.0729,3.0737,3.0752,3.0751,3.0764,3.0753,3.0753,3.0752,3.0751,3.0753,3.0766,3.0766,3.0767,3.0767,0,3.0573,3.0578,3.0594,3.0612,3.0626,3.064,3.0654,3.0662,3.0671,3.0683,3.0701,3.0711,3.0732,3.0748,3.0764,3.0771,3.077,3.077,3.0774,3.0774,3.0772,3.0773,3.0735,3.0769,3.0769,3.0769,3.0769,3.0769,3.059,3.0604,3.062,3.0638,3.065,3.0663,3.0676,3.0686,3.0701,3.072,3.0722,3.0741,3.0754,3.0775,3.0783,3.0797,3.0794,3.0799,3.08,3.0802,3.0803,3.0769,3.08,3.08,3.08,3.08,3.08,0,3.0617,3.0628,3.0645,3.0665,3.068,3.068,3.0695,3.0707,3.0724,3.0737,3.0751,3.0772,3.0788,3.0798,3.0814,3.0823,3.0824,3.0827,3.0827,3.0829,3.0805,3.08,3.0827,3.0827,3.0827,3.0827,3.0827,3.0827,3.0632,3.0655,3.0662,3.069,3.07,3.0721,3.073,3.0742,3.0752,3.0776,3.079,3.0797,3.0809,3.0826,3.0841,3.0843,3.0849,3.0853,3.0855,3.0833,3.083,3.0827,3.0823,3.0854,3.0854,3.0878,3.0878,3.0878]}]]